Flag for U.S.A. Weather past 2 weeks in San Diego, California, U.S.A.

Now
69 °F

Partly cloudy.


Feels Like: 69 °F
Forecast: 68 / 76 °F
Wind: 5 mph from West

Location: San Diego - North Island

Current Time: Aug 19, 2014 at 10:31:13 PM

Latest Report: Aug 19, 2014 at 9:52 PM


Visibility: 10 mi

Pressure: 29.88 "Hg

Humidity: 73%

Dew point: 60 °F

Location of San DiegoLocation

Historic Weather in San Diego — Graph

°F

San Diego temperature yesterday

Maximum temperature yesterday: 76 °F (at 2:52 PM)
Minimum temperature yesterday: 68 °F (at 9:52 PM)
Average temperature yesterday: 71 °F

Past Weeks' High & Low Weather Summary

 TemperatureHumidityPressure
High80 °F (Aug 16, 1:52 PM)90% (Aug 17, 4:52 AM)30.04 "Hg (Aug 17, 4:52 AM)
Low67 °F (Aug 8, 12:52 AM)57% (Aug 7, 10:52 AM)29.80 "Hg (Aug 18, 4:52 PM)
Average72 °F74%29.94 "Hg
* Reported Aug 4 8:52 PM — Aug 19 8:52 PM, San Diego, Weather by CustomWeather, © 2014

Note: Actual official high and low records may vary slightly from our data, if they occured in-between our weather recording intervals... More about our weather records

Advertising

San Diego weather history for previous 24 hours

 ConditionsComfort  
Time TempWeatherWind HumidityBarometerVisibility
8:52 PM
Aug 19
69 °FPartly cloudy.3 mph73%29.87 "Hg10 mi
7:52 PM70 °FPartly sunny.5 mph71%29.86 "Hg10 mi
6:52 PM70 °FPartly sunny.5 mph71%29.85 "Hg10 mi
5:52 PM71 °FBroken clouds.7 mph71%29.85 "Hg10 mi
4:52 PM72 °FBroken clouds.7 mph68%29.85 "Hg10 mi
3:52 PM73 °FPartly sunny.9 mph66%29.86 "Hg10 mi
2:52 PM73 °FBroken clouds.8 mph69%29.87 "Hg10 mi
1:52 PM73 °FScattered clouds.12 mph66%29.89 "Hg10 mi
12:52 PM74 °FPassing clouds.12 mph64%29.90 "Hg10 mi
11:52 AM74 °FScattered clouds.13 mph67%29.90 "Hg10 mi
10:52 AM72 °FScattered clouds.9 mph71%29.92 "Hg10 mi
9:52 AM72 °FPartly sunny.8 mph71%29.90 "Hg10 mi
8:52 AM70 °FPartly sunny.5 mph76%29.90 "Hg10 mi
7:52 AM69 °FOvercast.5 mph81%29.89 "Hg10 mi
6:52 AM69 °FOvercast.5 mph79%29.88 "Hg10 mi
5:52 AM68 °FPassing clouds.6 mph82%29.87 "Hg10 mi
4:52 AM68 °FPassing clouds.7 mph82%29.86 "Hg10 mi
3:52 AM68 °FPassing clouds.8 mph78%29.86 "Hg10 mi
2:52 AM68 °FPassing clouds.8 mph82%29.86 "Hg10 mi
1:52 AM68 °FPassing clouds.8 mph82%29.87 "Hg10 mi
12:52 AM68 °FPassing clouds.9 mph82%29.88 "Hg10 mi
11:52 PM
Aug 18
68 °FPassing clouds.8 mph82%29.88 "Hg10 mi
10:52 PM68 °FPassing clouds.10 mph82%29.87 "Hg10 mi
Weather by CustomWeather, © 2014

See weather overviewHow to use our weather pages